Weather in Fuvahmulah

Maldives     0°17′51″N   73°25′25″E
temp.,
°C
wind,
m/s
gust,
m/s
humid.,
%
clouds,
%
prec.,
mm/h
press.,
hPa
HPBL,
m
7 may, fri
fri723:00+29wnw12695 0.0 1010629
02:00+29w227034 0.0 1008616
05:00+29wnw22705 0.0 1008677
08:00+29wnw11705 0.0 1010636
11:00+29nw127137 0.0 1010662
14:00+29nw2270100 0.1 1008807
17:00+29nnw237014 0.1 1008873
20:00+29nnw12685 0.0 1010720
8 may, sat
sat823:00+29nne11695 0.0 1010722
02:00+28ene117395 1.1 100879
05:00+29ne22729 1.4 1008544
08:00+29ne22707 0.0 1010606
11:00+29nne12695 0.0 1010746
14:00+29nnw116815 0.0 1007816
17:00+29nw126712 0.0 1008817
20:00+29wnw11676 0.0 1009741
9 may, sun
sun923:00+29sw11687 0.0 1009697
02:00+29ssw117019 0.1 1007601
05:00+29ssw117199 1.3 1008641
08:00+29s227244 0.9 1010586
11:00+29s337212 0.9 1010728
14:00+29s117178 0.6 1007674
17:00+29s116996 0.6 1007764
20:00+29s226936 0.0 1009747
10 may, mon
mon1023:00+29sse227114 0.5 1009751
02:00+29s337381 0.0 1007804
05:00+29s3372100 0.0 1008786
08:00+29s337267 0.0 1010736
11:00+29s3371100 0.0 1009797
14:00+29ssw3371100 0.0 1007847
17:00+29sse227197 1.3 1008519
20:00+29sse227355 1.3 1010442
11 may, tue
tue1123:00+28sw117351 2.6 1010246
02:00+28sw227291 0.2 1008541
05:00+28sw2271100 0.2 1009638
08:00+29sw3370100 0.0 1010729
11:00+29wsw2269100 0.0 1010811
14:00+29wsw3369100 0.0 1008876
17:00+29wsw2269100 0.0 1008894
20:00+29wsw337020 0.0 1010867